Regional Weather Roundup
Issued by NWS Goodland, KS

Home | Current Version | Previous Version | Text Only | Print | Product List | Glossary Off
Versions: 1 2 3 4 5 6 7 8 9 10 11 12 13 14 15 16 17 18 19 20 21 22 23 24 25 26 27 28 29 30 31 32 33 34 35 36 37 38 39 40 41 42 43 44 45 46 47 48 49 50

000
ASUS43 KGLD 041808
RWRGLD

GOODLAND FORECAST AREA HOURLY WEATHER ROUNDUP
NATIONAL WEATHER SERVICE GOODLAND KS
1100 AM MST WED MAR 04 2015

...OFFICIAL OBSERVATIONS...

CITY           SKY/WX    TMP DP  RH WIND       PRES   REMARKS
GOODLAND KS    MOSUNNY   22  10  60 N10       30.23S WCI  11
HILL CITY KS   FAIR      28   8  43 VRB7      30.32S
IMPERIAL NEB     N/A     23   5  46 NW12      30.24F WCI  12
MCCOOK NEB     SUNNY     26  11  52 N6        30.29S
AKRON CO       SUNNY     18   2  49 NW7       30.17S
BURLINGTON CO  MOSUNNY   20   5  52 N8        30.20F
LIMON CO       CLOUDY    13   5  70 N7        30.14F
$$

...UNOFFICIAL OBSERVATIONS...

CITY           SKY/WX    TMP DP  RH WIND       PRES   REMARKS
COLBY KS       MOSUNNY   25  10  54 NW13      30.26S WCI  13
GOVE KS          N/A     27  32 100 MISG        N/A
LENORA KS        N/A     23  32 100 S12         N/A  WCI  12
NORTON KS      MOSUNNY   27  14  59 W9G16     30.29S
SHARON SPRINGS   N/A     23  14  68 NE9         N/A
KIT CARSON CO    N/A     19   8  61 MISG        N/A
YUMA CO          N/A     21   7  53 N9          N/A
$$



USA.gov is the U.S. government's official web portal to all federal, state and local government web resources and services.